[[{"header":{"parameterUnit":"m.s-1","parameterCategory":1,"la1":30.2991,"la2":30.254,"lo1":-89.0895,"lo2":-89.0444,"dy":0.0017,"dx":0.0017,"nx":28,"ny":28,"refTime":"2023-06-21T21:00:00:Z","depth":0,"parameterNumber":2,"parameterNumberName":"U-component_of_WINDS"},"data":[0,0,0,0,0,0,0,0,0,0,0,0,0,0,0,0,0,0,0,0,0,0,0,0,0,0,0,0,0,0,0,0,0,0,0,0,0,0,0,0,0,0,0,0,0,0,0,0,0,0,0,0,0,0,0,0,0,0,2.0469,2.047,0,2.0587,2.0588,2.0589,2.0608,2.0607,2.0606,2.0605,2.073,2.0735,2.0739,0,0,0,0,0,0,0,0,0,0,0,0,0,2.0266,2.027,2.0469,2.0471,2.0472,2.0586,2.0588,2.059,2.0608,2.0607,2.0605,2.0604,2.0729,2.0734,2.0739,0,0,0,0,0,0,0,0,0,0,0,0,0,2.0366,2.0271,2.0469,2.0495,2.0498,2.0586,2.0588,2.059,2.0608,2.0607,2.0605,2.0603,2.0727,2.0734,2.074,2.0812,0,0,2.076,2.0763,0,0,0,0,0,0,0,0,2.036,2.0374,2.0489,2.0493,2.0497,2.0581,2.0563,2.0665,2.0609,2.0567,2.0605,2.0603,2.0682,2.0692,2.0718,2.0818,2.0823,2.0761,2.0764,2.0767,2.0769,0,0,0,0,0,0,0,2.0353,2.0369,2.0516,2.0491,2.0496,2.0502,2.0515,2.0582,2.0632,2.057,2.0572,2.0585,2.0684,2.0712,2.0721,2.0825,2.076,2.0766,2.077,2.0773,2.0991,2.0993,0,0,0,0,0,0,2.0341,2.0363,2.0512,2.0519,2.0423,2.0507,2.0521,2.0556,2.0631,2.0641,2.0586,2.0585,2.0701,2.0714,2.0726,2.0816,2.0767,2.0773,2.0777,2.0989,2.0991,2.0993,0,0,0,0,0,0,2.0337,2.0354,2.0507,2.0441,2.0461,2.0512,2.0551,2.0559,2.0586,2.0643,2.0653,2.0605,2.0701,2.0717,2.079,2.082,2.0776,2.0782,2.0987,2.099,2.0992,2.0995,0,0,0,0,0,0,2.0331,2.0352,2.0379,2.0442,2.0465,2.0568,2.0553,2.0562,2.0597,2.0597,2.0664,2.0673,2.0701,2.078,2.0797,2.0828,2.0787,2.0984,2.0988,2.0991,2.0993,2.0998,2.1002,0,0,0,0,0,2.0323,2.0376,2.038,2.0398,2.0499,2.057,2.0583,2.0612,2.0599,2.0627,2.0664,2.0671,2.0814,2.0788,2.0806,2.084,2.0983,2.0987,2.0991,2.0991,2.0997,2.1002,0,0,0,0,0,0,2.0317,2.0385,2.039,2.0464,2.0511,2.0573,2.0609,2.0618,2.067,2.0668,2.0704,2.0719,2.0791,2.0823,2.0793,2.0914,2.0898,2.0906,2.0891,2.0897,2.0902,2.0893,2.0793,0,0,0,0,0,2.0324,2.0374,2.0431,2.0492,2.0514,2.0557,2.059,2.0608,2.0658,2.0679,2.0721,2.0771,2.0828,2.0864,2.0919,2.0997,2.1013,2.103,2.1035,2.1038,2.1045,2.109,2.1099,2.1007,2.1007,2.1007,0,0,2.034,2.0383,2.0413,2.0491,2.053,2.0583,2.0574,2.0631,2.0671,2.0688,2.076,2.0792,2.0851,2.0927,2.0963,2.0956,2.1074,2.1044,2.1046,2.1051,2.1095,2.1104,2.1112,2.101,2.101,2.1009,0,0,2.0395,2.0432,2.0487,2.0525,2.0582,2.0611,2.0624,2.0684,2.0706,2.0778,2.0792,2.0842,2.0937,2.0979,2.1012,2.1084,2.1093,2.1101,2.1126,2.1169,2.1176,2.1183,2.121,2.1219,2.1107,2.1107,2.1107,0,2.0408,2.0486,2.0514,2.057,2.0605,2.0621,2.0677,2.0713,2.0787,2.0811,2.0802,2.0923,2.0964,2.105,2.1067,2.1094,2.1111,2.1094,2.1173,2.118,2.1186,2.1212,2.1222,2.1108,2.1108,2.1108,2.1108,0,2.05,2.0554,2.0592,2.066,2.0699,2.0755,2.0793,2.0829,2.0844,2.0874,2.0948,2.0997,2.1062,2.1084,2.11,2.1174,2.1168,2.1165,2.1149,2.1195,2.122,2.123,2.1109,2.1109,2.1109,2.1108,0,0,2.0555,2.0638,2.0651,2.0683,2.0747,2.0791,2.0848,2.091,2.0942,2.0992,2.1042,2.1122,2.112,2.1159,2.1179,2.1217,2.1272,2.121,2.1212,2.1221,2.1357,2.1359,2.137,2.1277,2.1279,2.1281,2.1353,0,2.0619,2.0719,2.0746,2.0832,2.0884,2.09,2.095,2.0996,2.1026,2.1075,2.1108,2.1165,2.1158,2.1181,2.1219,2.1257,2.13,2.1252,2.1326,2.1329,2.1312,2.1383,2.1386,2.1451,2.1362,2.1364,2.1365,0,2.0707,2.0757,2.0848,2.0906,2.0929,2.0973,2.1033,2.1079,2.1132,2.1151,2.1193,2.121,2.1273,2.1252,2.134,2.1306,2.1339,2.1362,2.1365,2.1374,2.135,2.1395,2.1472,2.1482,2.1381,2.1379,2.1378,0,2.0739,2.083,2.0896,2.0922,2.0992,2.1023,2.1053,2.1105,2.1141,2.1193,2.1217,2.1277,2.131,2.1357,2.139,2.1372,2.1475,2.1457,2.1494,2.1494,2.1516,2.1515,2.1601,2.1535,2.1535,2.1535,2.1534,0,2.0808,2.0863,2.0911,2.0952,2.1015,2.1046,2.1108,2.114,2.1185,2.1234,2.1252,2.1298,2.1338,2.139,2.1417,2.1485,2.15,2.1519,2.1525,2.1518,2.1515,2.154,2.1537,2.1537,2.1537,2.1536,2.1536,0,2.0855,2.0889,2.0963,2.1022,2.1038,2.1082,2.1134,2.1175,2.1205,2.1266,2.1283,2.133,2.1392,2.1429,2.1508,2.1526,2.1603,2.1607,2.1584,2.1587,2.1622,2.1619,2.1728,2.1745,2.1667,2.1668,2.1668,0,2.0897,2.094,2.1004,2.1037,2.1067,2.112,2.1157,2.1189,2.1227,2.1291,2.1325,2.1387,2.1439,2.1537,2.158,2.1641,2.1647,2.1681,2.1657,2.1648,2.1649,2.1647,2.1652,2.1686,2.1687,2.1687,2.1688,0,2.0969,2.0984,2.1034,2.1091,2.1134,2.1181,2.1228,2.1254,2.1295,2.1337,2.1399,2.1439,2.1519,2.1581,2.1645,2.1679,2.1691,2.1695,2.1707,2.17,2.1685,2.1695,2.1597,2.1693,2.1692,2.1692,2.1691,2.1691,2.1016,2.1055,2.1105,2.1162,2.12,2.1244,2.1285,2.132,2.1372,2.1438,2.1455,2.1521,2.1574,2.1661,2.1696,2.175,2.1745,2.1762,2.1766,2.177,2.1771,2.1676,2.1761,2.1761,2.1761,2.1761,2.1761,0,2.1089,2.1122,2.1174,2.1238,2.1283,2.1288,2.134,2.1378,2.1435,2.1483,2.1533,2.1606,2.1666,2.1713,2.1776,2.181,2.1817,2.1826,2.1824,2.1832,2.1772,2.1756,2.1819,2.1819,2.1819,2.1819,2.1819,2.1819,2.1132,2.1199,2.122,2.1306,2.134,2.1403,2.1433,2.1474,2.1512,2.1591,2.1641,2.1671,2.1719,2.1786,2.1842,2.1855,2.1878,2.1885,2.1899,2.1842,2.1836,2.183,2.1815,2.189,2.189,2.1955,2.1955,2.1956]},{"header":{"parameterUnit":"m.s-1","parameterCategory":1,"la1":30.2991,"la2":30.254,"lo1":-89.0895,"lo2":-89.0444,"dy":0.0017,"dx":0.0017,"nx":28,"ny":28,"refTime":"2023-06-21T21:00:00:Z","depth":0,"parameterNumber":3,"parameterNumberName":"V-component_of_WINDS"},"data":[0,0,0,0,0,0,0,0,0,0,0,0,0,0,0,0,0,0,0,0,0,0,0,0,0,0,0,0,0,0,0,0,0,0,0,0,0,0,0,0,0,0,0,0,0,0,0,0,0,0,0,0,0,0,0,0,0,0,5.2217,5.2217,0,5.2275,5.2276,5.2276,5.2223,5.2221,5.2219,5.2217,5.227,5.2273,5.2276,0,0,0,0,0,0,0,0,0,0,0,0,0,5.2052,5.2055,5.2216,5.2217,5.2218,5.2275,5.2276,5.2277,5.2223,5.2221,5.2218,5.2216,5.2269,5.2273,5.2277,0,0,0,0,0,0,0,0,0,0,0,0,0,5.2118,5.2056,5.2216,5.2199,5.2198,5.2275,5.2276,5.2277,5.2224,5.2221,5.2218,5.2215,5.2267,5.2272,5.2277,5.2373,0,0,5.2293,5.2295,0,0,0,0,0,0,0,0,5.2114,5.2124,5.22,5.22,5.2199,5.2239,5.2237,5.2309,5.2225,5.2214,5.2217,5.2213,5.2261,5.2267,5.2285,5.2375,5.2378,5.2293,5.2296,5.2299,5.23,0,0,0,0,0,0,0,5.211,5.2121,5.2239,5.2202,5.2201,5.2185,5.2191,5.225,5.2255,5.2214,5.2211,5.2219,5.226,5.228,5.2285,5.2378,5.2293,5.2298,5.2301,5.2303,5.2552,5.2555,0,0,0,0,0,0,5.2108,5.2118,5.2238,5.2241,5.2148,5.2191,5.2197,5.2229,5.2254,5.2255,5.2221,5.2216,5.2273,5.228,5.2287,5.2402,5.2298,5.2303,5.2306,5.2548,5.2553,5.2556,0,0,0,0,0,0,5.2105,5.2119,5.2235,5.2179,5.2192,5.2197,5.2233,5.2232,5.2251,5.2259,5.2259,5.2241,5.227,5.228,5.2353,5.2403,5.2306,5.231,5.2544,5.255,5.2554,5.2633,0,0,0,0,0,0,5.21,5.2118,5.2156,5.218,5.2196,5.2302,5.2236,5.2235,5.2261,5.2255,5.2278,5.2278,5.2269,5.2346,5.2358,5.2409,5.2314,5.254,5.2547,5.2553,5.2626,5.264,5.2653,0,0,0,0,0,5.2095,5.2174,5.2159,5.2173,5.2244,5.2305,5.2314,5.2303,5.2265,5.2303,5.2308,5.2278,5.2396,5.2353,5.2367,5.242,5.2536,5.2545,5.2552,5.262,5.2638,5.2652,0,0,0,0,0,0,5.2153,5.2177,5.216,5.225,5.2277,5.2296,5.2343,5.2322,5.2357,5.235,5.2332,5.2338,5.2416,5.2424,5.2377,5.2514,5.246,5.2471,5.2506,5.2523,5.2536,5.2533,5.2318,0,0,0,0,0,5.2178,5.2228,5.2245,5.2322,5.2337,5.2338,5.2364,5.2354,5.238,5.239,5.24,5.2424,5.2467,5.2495,5.2534,5.2626,5.2631,5.2669,5.2683,5.2694,5.2704,5.2754,5.2772,5.2583,5.2583,5.2582,0,0,5.2227,5.2246,5.2278,5.2335,5.2354,5.2405,5.2348,5.2403,5.2441,5.2397,5.2468,5.2477,5.2502,5.2586,5.2623,5.2595,5.2757,5.2704,5.2713,5.2717,5.2764,5.2782,5.2798,5.2588,5.2587,5.2586,0,0,5.2343,5.2362,5.2431,5.2452,5.2483,5.2483,5.2499,5.2523,5.2528,5.2599,5.2568,5.261,5.2684,5.2704,5.2724,5.2849,5.2823,5.2862,5.2932,5.2982,5.2997,5.301,5.3056,5.3072,5.2872,5.2872,5.2872,0,5.24,5.2478,5.2467,5.2527,5.2553,5.2518,5.2587,5.2606,5.2648,5.2665,5.2634,5.2727,5.2742,5.283,5.2861,5.2878,5.2895,5.286,5.2996,5.3009,5.3021,5.3065,5.3082,5.2876,5.2876,5.2875,5.2875,0,5.2547,5.2602,5.2652,5.2697,5.2728,5.2791,5.2789,5.2821,5.2808,5.2811,5.2884,5.29,5.2943,5.2963,5.2949,5.305,5.3032,5.2999,5.2943,5.3044,5.3085,5.3101,5.2883,5.2882,5.288,5.2879,0,0,5.2703,5.2742,5.2761,5.2781,5.2813,5.2854,5.2915,5.296,5.2989,5.3018,5.3069,5.3132,5.3102,5.3125,5.3113,5.3156,5.3256,5.3117,5.3118,5.3144,5.3369,5.3395,5.3415,5.3238,5.3241,5.3244,5.3367,0,5.2822,5.2932,5.2925,5.3027,5.3078,5.3046,5.3099,5.3124,5.3128,5.317,5.3173,5.3219,5.3175,5.3189,5.323,5.3235,5.3301,5.3226,5.3285,5.3287,5.3282,5.3436,5.3463,5.358,5.3383,5.3386,5.3388,0,5.2976,5.3015,5.3124,5.315,5.3171,5.3219,5.326,5.3301,5.3327,5.3327,5.3354,5.3335,5.3395,5.3337,5.342,5.3369,5.3392,5.3398,5.3402,5.3408,5.3345,5.3448,5.3616,5.3634,5.3412,5.341,5.3409,0,5.3081,5.3159,5.3236,5.3254,5.3285,5.3321,5.3335,5.3358,5.3386,5.3421,5.3439,5.3479,5.3501,5.3531,5.3523,5.3482,5.3608,5.355,5.3609,5.361,5.3639,5.3637,5.3815,5.3651,5.3651,5.365,5.365,0,5.3216,5.3284,5.3284,5.3331,5.3406,5.3395,5.3469,5.3479,5.35,5.3547,5.352,5.3564,5.355,5.3593,5.3586,5.3656,5.3665,5.3667,5.3664,5.367,5.3671,5.3686,5.3679,5.3655,5.3654,5.3653,5.3652,0,5.3347,5.3349,5.343,5.3455,5.3462,5.3517,5.3536,5.358,5.3582,5.3642,5.3655,5.3658,5.3707,5.3702,5.3756,5.3751,5.3839,5.3826,5.3831,5.3829,5.389,5.3885,5.4085,5.4111,5.3929,5.3931,5.3932,0,5.3434,5.3486,5.3517,5.3549,5.3566,5.3616,5.3645,5.3636,5.3667,5.3702,5.3741,5.3788,5.3826,5.3905,5.3911,5.3952,5.3941,5.4008,5.3947,5.3952,5.3944,5.3942,5.3947,5.4021,5.4023,5.4025,5.4026,0,5.3588,5.3587,5.3632,5.3678,5.3715,5.3749,5.3781,5.3807,5.3801,5.3837,5.3888,5.3918,5.3974,5.4022,5.4061,5.4073,5.4049,5.4045,5.4062,5.4069,5.4071,5.4072,5.3866,5.4041,5.4039,5.4038,5.4037,5.4037,5.3701,5.3747,5.3777,5.3828,5.3851,5.3882,5.3925,5.3934,5.3977,5.4025,5.4016,5.4074,5.4099,5.415,5.4166,5.421,5.4185,5.4208,5.4214,5.4221,5.4229,5.4063,5.4216,5.4216,5.4216,5.4215,5.4215,0,5.3855,5.3874,5.3921,5.3968,5.4008,5.3984,5.4017,5.4052,5.4105,5.4131,5.417,5.4229,5.4275,5.4285,5.4328,5.4362,5.4352,5.4373,5.4372,5.4375,5.4248,5.423,5.4381,5.4381,5.4381,5.4381,5.4381,5.4381,5.3941,5.4018,5.4021,5.4109,5.4125,5.4185,5.4207,5.4234,5.4256,5.4325,5.4364,5.4371,5.439,5.4435,5.4476,5.4477,5.4495,5.4522,5.4519,5.44,5.4384,5.4368,5.4351,5.4525,5.4526,5.4643,5.4644,5.4645]}]]